{"data":{"norad_id":31125,"intl_designator":"2007-012J","name":"SAUDICOMSAT 3","alt_names":[],"object_type":"PAYLOAD","status":"ACTIVE","operator":null,"country":"SAUD","launch_date":"2007-04-17","launch_site_code":"TYMSC","launch_vehicle":null,"mission":null,"orbit_class":"UNKNOWN","rcs_meters":0.0748,"size_class":null,"mass_kg":null,"dimensions":null,"purposes":[],"wikipedia_slug":null,"has_3d_model":false,"image_url":null,"decayed_at":null,"tle_current":{"epoch":"2026-09-19T16:19:03.631296Z","epoch_age_seconds":89230,"freshness":"FRESH","line1":"1 31125U 07012J   26262.67990314  .00000442  00000+0  80256-4 0  9993","line2":"2 31125  98.3266 240.0769 0040229 112.4194 248.1281 14.70821183 38715","mean_motion":14.70821183,"eccentricity":0.0040229,"inclination_deg":98.3266,"raan_deg":240.0769,"arg_perigee_deg":112.4194,"mean_anomaly_deg":248.1281,"bstar":8.0256e-5,"rev_number":3871,"period_min":97.904491493851,"perigee_km":630.14029280777,"apogee_km":686.75524654764,"semimajor_km":7036.5847696777,"source":"CELESTRAK","updated_at":"2026-09-20T09:00:13.652835Z"}}}